GW1239 Weather Reports


Display with metric or nautical units.
time (UTC)temp
F
wind
direction
speed
MPH
gust
MPH
rain 1hr
in
rain 24hr
in
rain mn
in
humidity
%
barometer
mb
20260506202017 64 128 2.0 8.0 0.00 0.19 0.19 89 1007.0
20260506201517 63 104 2.0 5.0 0.00 0.19 0.19 90 1007.1
20260506201017 63 72 1.0 3.0 0.00 0.19 0.19 91 1007.2
20260506200517 63 75 1.0 3.0 0.00 0.19 0.19 91 1007.2
20260506200018 63 40 1.0 4.0 0.00 0.19 0.19 92 1007.2
20260506195517 63 32 1.0 6.0 0.00 0.19 0.19 92 1007.3
20260506195018 62 73 1.0 5.0 0.00 0.19 0.19 93 1007.3
20260506194518 62 114 2.0 6.0 0.00 0.19 0.19 93 1007.4
20260506194018 62 82 2.0 6.0 0.00 0.19 0.19 93 1007.6
20260506193518 62 117 2.0 5.0 0.00 0.19 0.19 94 1007.6
20260506193018 62 133 1.0 5.0 0.00 0.19 0.19 94 1007.7
20260506192518 62 31 1.0 5.0 0.00 0.19 0.19 94 1007.7
20260506192018 62 69 1.0 5.0 0.00 0.19 0.19 94 1007.8
20260506191518 62 119 2.0 5.0 0.00 0.19 0.19 94 1007.9
20260506191018 62 29 2.0 6.0 0.00 0.19 0.19 93 1007.9
20260506190518 62 25 2.0 6.0 0.00 0.19 0.19 92 1008.0
20260506190019 62 47 2.0 8.0 0.00 0.19 0.19 92 1008.0
20260506185519 62 89 2.0 6.0 0.00 0.19 0.19 92 1008.0
20260506185018 62 52 2.0 9.0 0.00 0.19 0.19 93 1007.9
20260506184519 62 89 1.0 4.0 0.00 0.19 0.19 94 1007.9
20260506184019 62 71 1.0 5.0 0.00 0.19 0.19 94 1007.9
20260506183519 62 37 1.0 3.0 0.00 0.19 0.19 95 1007.9
20260506183019 62 95 2.0 4.0 0.00 0.19 0.19 95 1007.8
20260506182519 62 102 2.0 5.0 0.00 0.19 0.19 95 1007.9
20260506182019 62 67 2.0 7.0 0.00 0.19 0.19 95 1008.0
20260506181520 62 122 1.0 6.0 0.00 0.19 0.19 94 1008.0
20260506181020 62 65 2.0 4.0 0.00 0.19 0.19 94 1008.1
20260506180520 62 92 2.0 5.0 0.01 0.19 0.19 93 1008.1
20260506180017 63 80 1.0 4.0 0.01 0.19 0.19 93 1008.2
20260506175516 63 66 1.0 5.0 0.01 0.19 0.19 92 1008.2
20260506175017 63 98 2.0 6.0 0.01 0.19 0.19 92 1008.3
20260506174520 63 85 2.0 6.0 0.02 0.19 0.19 92 1008.4
20260506174020 63 56 1.0 2.0 0.02 0.19 0.19 92 1008.4
20260506173520 63 37 1.0 3.0 0.02 0.19 0.19 92 1008.4
20260506173020 63 22 2.0 4.0 0.02 0.19 0.19 91 1008.4
20260506172558 64 72 2.0 6.0 0.02 0.19 0.19 91 1008.3
20260506172017 64 351 1.0 4.0 0.03 0.19 0.19 92 1008.3
20260506171517 64 13 2.0 6.0 0.04 0.19 0.19 92 1008.1
20260506171037 64 350 1.0 4.0 0.05 0.19 0.19 92 1008.1
20260506170518 64 134 1.0 5.0 0.05 0.19 0.19 92 1008.2
20260506170018 63 6 1.0 5.0 0.06 0.18 0.18 93 1008.2
20260506165521 63 23 1.0 3.0 0.07 0.18 0.18 92 1008.3
20260506165041 63 55 1.0 5.0 0.08 0.18 0.18 92 1008.3
20260506164518 63 7 1.0 5.0 0.09 0.18 0.18 92 1008.4
20260506164018 63 96 1.0 5.0 0.11 0.18 0.18 92 1008.6
20260506163518 63 58 1.0 6.0 0.12 0.17 0.17 92 1008.8
20260506163038 62 56 1.0 2.0 0.13 0.17 0.17 92 1009.0
20260506162518 62 355 1.0 4.0 0.13 0.17 0.17 92 1009.2
20260506162018 62 47 1.0 2.0 0.13 0.16 0.16 92 1009.4
20260506161538 62 18 1.0 3.0 0.12 0.15 0.15 91 1009.5
20260506161019 62 25 1.0 2.0 0.11 0.14 0.14 90 1009.5
20260506160519 63 53 1.0 3.0 0.11 0.13 0.13 90 1009.5
20260506160019 63 69 0.0 3.0 0.11 0.12 0.12 90 1009.6
20260506155518 63 103 1.0 4.0 0.10 0.11 0.11 89 1009.7
20260506155019 63 92 1.0 4.0 0.09 0.10 0.10 88 1009.8
20260506154519 64 56 1.0 4.0 0.08 0.08 0.08 87 1010.0
20260506154019 64 39 1.0 4.0 0.06 0.07 0.07 85 1009.9
20260506153519 64 32 1.0 3.0 0.05 0.05 0.05 84 1009.8
20260506153020 65 127 1.0 4.0 0.04 0.04 0.04 82 1009.7
20260506152520 65 50 1.0 4.0 0.03 0.04 0.04 81 1009.7
20260506152020 65 36 2.0 5.0 0.03 0.03 0.03 82 1009.8
20260506151540 65 97 3.0 8.0 0.02 0.03 0.03 80 1009.6
20260506151017 65 79 2.0 5.0 0.02 0.03 0.03 80 1009.9
20260506150537 66 40 2.0 9.0 0.02 0.02 0.02 78 1009.8
20260506150017 66 2 2.0 7.0 0.01 0.02 0.02 77 1009.8
20260506145540 67 103 2.0 7.0 0.01 0.01 0.01 75 1009.7
20260506145040 67 111 3.0 9.0 0.00 0.01 0.01 74 1009.9
20260506144600 67 97 2.0 6.0 0.00 0.01 0.01 73 1009.9
20260506144040 67 87 3.0 6.0 0.00 0.01 0.01 71 1009.9
20260506143521 68 98 3.0 9.0 0.00 0.01 0.01 72 1009.9
20260506143017 68 116 2.0 7.0 0.00 0.01 0.01 71 1009.9
20260506142517 68 5 3.0 9.0 0.00 0.01 0.01 71 1009.8
20260506142017 68 64 3.0 8.0 0.00 0.01 0.01 70 1009.8
20260506141518 68 35 3.0 8.0 0.00 0.01 0.01 70 1009.8
20260506141018 68 38 4.0 9.0 0.00 0.01 0.01 70 1009.7
20260506140517 68 316 3.0 8.0 0.00 0.01 0.01 71 1009.6
20260506140018 67 105 2.0 11.0 0.00 0.01 0.01 71 1009.7
20260506135541 67 51 2.0 7.0 0.00 0.01 0.01 72 1009.7
20260506135018 67 35 2.0 5.0 0.00 0.01 0.01 73 1009.7
20260506134518 67 86 3.0 9.0 0.00 0.01 0.01 73 1009.8
20260506134018 67 113 2.0 7.0 0.00 0.01 0.01 73 1009.7
20260506133518 67 77 2.0 10.0 0.00 0.01 0.01 73 1009.7
20260506133018 67 55 2.0 6.0 0.00 0.01 0.01 73 1009.7
20260506132519 67 9 3.0 7.0 0.00 0.01 0.01 73 1009.8
20260506132018 67 7 2.0 8.0 0.00 0.01 0.01 72 1010.0
20260506131519 67 30 2.0 6.0 0.00 0.01 0.01 72 1009.9
20260506131019 67 21 2.0 8.0 0.00 0.01 0.01 72 1009.9
20260506130519 67 1 2.0 4.0 0.00 0.01 0.01 73 1010.0
20260506130019 67 91 3.0 9.0 0.00 0.01 0.01 73 1009.8
20260506125519 66 60 3.0 8.0 0.00 0.01 0.01 73 1009.9
20260506125019 66 85 3.0 9.0 0.00 0.01 0.01 74 1010.0
20260506124539 66 102 3.0 9.0 0.00 0.01 0.01 74 1009.8
20260506124019 66 336 3.0 8.0 0.00 0.01 0.01 74 1009.7
20260506123519 66 82 3.0 7.0 0.00 0.01 0.01 74 1009.7
20260506123019 66 356 2.0 6.0 0.00 0.01 0.01 75 1009.7
20260506122519 65 348 2.0 7.0 0.00 0.01 0.01 75 1009.7
20260506122019 65 34 1.0 4.0 0.00 0.01 0.01 76 1009.9
20260506121519 65 87 2.0 6.0 0.00 0.01 0.01 77 1009.8
20260506121017 65 73 2.0 5.0 0.01 0.01 0.01 77 1009.9
20260506120537 65 72 2.0 6.0 0.01 0.01 0.01 77 1010.0
20260506120017 65 134 2.0 8.0 0.01 0.01 0.01 77 1009.9
20260506115520 65 139 2.0 9.0 0.01 0.01 0.01 77 1009.9
20260506115020 65 86 2.0 4.0 0.01 0.01 0.01 77 1009.9
20260506114520 65 74 3.0 9.0 0.01 0.01 0.01 77 1009.9
20260506114020 65 69 1.0 4.0 0.01 0.01 0.01 77 1010.1
20260506113520 65 93 2.0 6.0 0.01 0.01 0.01 78 1010.2
20260506113017 65 87 2.0 6.0 0.01 0.01 0.01 78 1010.2
20260506112558 65 92 2.0 5.0 0.01 0.01 0.01 78 1010.2
20260506112018 65 15 2.0 4.0 0.01 0.01 0.01 78 1010.0
20260506111518 64 95 3.0 7.0 0.01 0.01 0.01 78 1010.1
20260506111058 64 335 2.0 7.0 0.00 0.00 0.00 79 1010.0
20260506110538 64 51 1.0 5.0 0.00 0.00 0.00 80 1010.0
20260506110018 64 121 2.0 5.0 0.00 0.00 0.00 80 1010.0
20260506105521 64 247 2.0 6.0 0.00 0.00 0.00 80 1009.9
20260506105018 63 357 2.0 5.0 0.00 0.00 0.00 80 1009.9
20260506104518 63 78 2.0 5.0 0.00 0.00 0.00 81 1009.8
20260506104018 63 68 2.0 6.0 0.00 0.00 0.00 81 1009.8
20260506103519 63 100 2.0 4.0 0.00 0.00 0.00 82 1009.7
20260506103019 63 74 1.0 5.0 0.00 0.00 0.00 82 1009.7
20260506102518 63 88 1.0 4.0 0.00 0.00 0.00 82 1009.8
20260506102019 63 49 1.0 5.0 0.00 0.00 0.00 81 1009.9
20260506101619 63 313 2.0 5.0 0.00 0.00 0.00 81 1009.9
20260506101038 63 64 2.0 6.0 0.00 0.00 0.00 82 1009.8
20260506100519 63 20 1.0 8.0 0.00 0.00 0.00 81 1009.8
20260506100019 63 96 2.0 6.0 0.00 0.00 0.00 81 1009.7
20260506095519 63 20 2.0 5.0 0.00 0.00 0.00 81 1009.5
20260506095019 63 56 2.0 5.0 0.00 0.00 0.00 81 1009.5
20260506094600 64 41 1.0 4.0 0.00 0.00 0.00 81 1009.5
20260506094019 64 20 1.0 4.0 0.00 0.00 0.00 80 1009.5
20260506093519 64 84 2.0 4.0 0.00 0.00 0.00 80 1009.5
20260506093020 64 43 2.0 5.0 0.00 0.00 0.00 80 1009.5
20260506092519 64 86 2.0 7.0 0.00 0.00 0.00 80 1009.5
20260506092020 64 76 2.0 6.0 0.00 0.00 0.00 80 1009.6
20260506091517 64 82 2.0 5.0 0.00 0.00 0.00 81 1009.6
20260506091040 64 83 1.0 4.0 0.00 0.00 0.00 80 1009.6
20260506090517 64 70 2.0 6.0 0.00 0.00 0.00 80 1009.7
20260506090017 64 67 2.0 5.0 0.00 0.00 0.00 80 1009.7
20260506085520 64 83 2.0 6.0 0.00 0.00 0.00 80 1009.7
20260506085100 64 106 2.0 7.0 0.00 0.00 0.00 80 1009.7
20260506084540 64 84 2.0 4.0 0.00 0.00 0.00 81 1009.7
20260506084040 64 45 1.0 3.0 0.00 0.00 0.00 80 1009.8
20260506083538 64 51 2.0 6.0 0.00 0.00 0.00 81 1009.8
20260506083117 64 96 1.0 4.0 0.00 0.00 0.00 81 1009.8
20260506082518 64 57 1.0 4.0 0.00 0.00 0.00 81 1009.8
20260506082018 64 74 1.0 5.0 0.00 0.00 0.00 80 1009.8
20260506081518 64 110 2.0 6.0 0.00 0.00 0.00 80 1009.9
20260506081018 64 65 2.0 5.0 0.00 0.00 0.00 80 1009.9
20260506080518 64 97 2.0 8.0 0.00 0.00 0.00 80 1009.9
20260506073518 64 80 2.0 4.0 0.00 0.00 0.00 80 1009.9
20260506073019 64 84 1.0 5.0 0.00 0.00 0.00 80 1009.9
20260506072518 65 55 1.0 5.0 0.00 0.00 0.00 79 1010.0
20260506072019 65 86 1.0 4.0 0.00 0.00 0.00 79 1009.9
20260506071519 65 106 1.0 3.0 0.00 0.00 0.00 79 1009.9
20260506071019 65 91 1.0 3.0 0.00 0.00 0.00 79 1010.0
20260506070519 65 100 2.0 5.0 0.00 0.00 0.00 79 1010.0
20260506062017 66 347 1.0 3.0 0.00 0.00 0.00 76 1010.2
20260506061517 66 53 1.0 3.0 0.00 0.00 0.00 75 1010.2
20260506061017 66 74 2.0 6.0 0.00 0.00 0.00 75 1010.2
20260506060520 66 71 1.0 4.0 0.00 0.00 0.00 75 1010.3
20260506051018 67 65 1.0 3.0 0.00 0.00 0.00 71 1010.6
20260506050521 67 87 2.0 6.0 0.00 0.00 0.00 70 1010.7
20260506045018 67 88 2.0 5.0 0.00 0.00 0.00 70 1010.7
20260506044518 67 49 2.0 4.0 0.00 0.00 0.00 70 1010.7
20260506044059 67 90 2.0 5.0 0.00 0.00 0.00 69 1010.7
20260506043518 67 70 1.0 4.0 0.00 0.00 0.00 69 1010.7
20260506043019 67 77 1.0 3.0 0.00 0.00 0.00 68 1010.7
20260506042519 67 76 2.0 7.0 0.00 0.00 0.00 68 1010.7
20260506042039 68 81 2.0 4.0 0.00 0.00 0.00 68 1010.7
20260506041519 68 35 2.0 3.0 0.00 0.00 0.00 67 1010.7
20260506041019 68 57 2.0 4.0 0.00 0.00 0.00 67 1010.7
20260506040519 68 83 2.0 5.0 0.00 0.00 0.00 67 1010.6
20260506040019 68 69 2.0 4.0 0.00 0.00 0.00 66 1010.6
20260506035519 68 116 2.0 5.0 0.00 0.00 0.00 66 1010.6
20260506035019 68 75 2.0 4.0 0.00 0.00 0.00 66 1010.6
20260506034519 68 65 2.0 5.0 0.00 0.00 0.00 65 1010.6
20260506034020 68 83 2.0 6.0 0.00 0.00 0.00 65 1010.6
20260506033520 68 54 2.0 5.0 0.00 0.00 0.00 65 1010.5
20260506033020 68 74 1.0 3.0 0.00 0.00 0.00 64 1010.6
20260506032516 68 95 2.0 7.0 0.00 0.00 0.00 64 1010.5
20260506032017 68 88 2.0 6.0 0.00 0.00 0.00 64 1010.5
20260506031517 68 64 2.0 4.0 0.00 0.00 0.00 64 1010.5
20260506031017 68 336 2.0 5.0 0.00 0.00 0.00 64 1010.5
20260506030520 69 67 2.0 5.0 0.00 0.00 0.00 64 1010.6
20260506030020 69 48 1.0 5.0 0.00 0.00 0.00 63 1010.6
20260506025520 69 109 2.0 5.0 0.00 0.00 0.00 63 1010.6
20260506025018 69 109 3.0 10.0 0.00 0.00 0.00 63 1010.6
20260506024537 69 99 2.0 4.0 0.00 0.00 0.00 63 1010.6
20260506024037 69 71 2.0 5.0 0.00 0.00 0.00 63 1010.6
20260506023518 69 78 1.0 4.0 0.00 0.00 0.00 63 1010.6
20260506023017 69 100 2.0 5.0 0.00 0.00 0.00 62 1010.6
20260506022518 69 121 2.0 6.0 0.00 0.00 0.00 62 1010.6
20260506022018 70 96 3.0 7.0 0.00 0.00 0.00 62 1010.6
20260506021521 70 106 2.0 6.0 0.00 0.00 0.00 62 1010.6
20260506021021 70 76 2.0 5.0 0.00 0.00 0.00 61 1010.6
20260506020518 70 118 2.0 5.0 0.00 0.00 0.00 61 1010.6
20260506020018 70 74 2.0 4.0 0.00 0.00 0.00 60 1010.6
20260506015518 71 94 2.0 5.0 0.00 0.00 0.00 60 1010.6
20260506015018 71 100 2.0 5.0 0.00 0.00 0.00 59 1010.5
20260506014518 71 99 2.0 7.0 0.00 0.00 0.00 59 1010.5
20260506014039 71 126 2.0 8.0 0.00 0.00 0.00 58 1010.4
20260506013518 71 91 2.0 6.0 0.00 0.00 0.00 58 1010.4
20260506013039 72 32 1.0 5.0 0.00 0.00 0.00 57 1010.4
20260506012519 72 88 4.0 11.0 0.00 0.00 0.00 56 1010.4
20260506012019 72 94 2.0 6.0 0.00 0.00 0.00 54 1010.3
20260506011519 73 103 2.0 6.0 0.00 0.00 0.00 53 1010.2
20260506011019 73 114 3.0 9.0 0.00 0.00 0.00 52 1010.1
20260506010519 73 28 1.0 7.0 0.00 0.00 0.00 50 1010.0
20260506010019 74 85 2.0 7.0 0.00 0.00 0.00 49 1010.0
20260506005539 74 118 3.0 9.0 0.00 0.00 0.00 48 1009.9
20260506005039 74 71 3.0 9.0 0.00 0.00 0.00 48 1009.8
20260506004519 74 68 2.0 7.0 0.00 0.00 0.00 47 1009.7
20260506004040 74 130 2.0 8.0 0.00 0.00 0.00 47 1009.7
20260506003540 74 23 1.0 5.0 0.00 0.00 0.00 47 1009.6
20260506003017 75 36 1.0 5.0 0.00 0.00 0.00 46 1009.5
20260506002517 75 105 3.0 9.0 0.00 0.00 0.00 46 1009.5
20260506002017 75 61 2.0 6.0 0.00 0.00 0.00 46 1009.5
20260506001520 75 340 2.0 7.0 0.00 0.00 0.00 46 1009.4
20260506001100 75 77 2.0 5.0 0.00 0.00 0.00 45 1009.4
20260506000600 76 354 2.0 5.0 0.00 0.00 0.00 45 1009.3
20260506000020 76 57 2.0 6.0 0.00 0.00 0.00 45 1009.3
20260505235520 76 58 2.0 8.0 0.00 0.00 0.00 44 1009.3
20260505235017 76 352 2.0 9.0 0.00 0.00 0.00 44 1009.3
20260505234517 77 23 2.0 5.0 0.00 0.00 0.00 44 1009.3
20260505234017 77 36 3.0 12.0 0.00 0.00 0.00 43 1009.2
20260505233518 77 33 2.0 6.0 0.00 0.00 0.00 44 1009.2
20260505233018 77 38 2.0 8.0 0.00 0.00 0.00 44 1009.1
20260505232518 77 78 2.0 7.0 0.00 0.00 0.00 43 1009.0
20260505232018 78 83 3.0 8.0 0.00 0.00 0.00 42 1009.0
20260505231521 78 61 2.0 6.0 0.00 0.00 0.00 41 1009.0
20260505231021 78 37 1.0 5.0 0.00 0.00 0.00 40 1008.9
20260505230601 79 61 3.0 8.0 0.00 0.00 0.00 39 1008.8
20260505230018 79 5 2.0 7.0 0.00 0.00 0.00 38 1008.8
20260505225518 79 57 3.0 8.0 0.00 0.00 0.00 37 1008.8
20260505225019 79 59 3.0 9.0 0.00 0.00 0.00 37 1008.8
20260505224519 79 105 3.0 9.0 0.00 0.00 0.00 37 1008.7
20260505224019 79 71 2.0 7.0 0.00 0.00 0.00 37 1008.7
20260505223519 79 8 3.0 6.0 0.00 0.00 0.00 37 1008.7
20260505223019 79 64 2.0 7.0 0.00 0.00 0.00 36 1008.7
20260505222519 80 39 4.0 10.0 0.00 0.01 0.00 36 1008.6
20260505222019 80 27 3.0 8.0 0.00 0.01 0.00 36 1008.7
20260505221539 80 26 3.0 7.0 0.00 0.01 0.00 36 1008.8
20260505221019 80 335 3.0 7.0 0.00 0.01 0.00 36 1008.7
20260505220519 80 300 3.0 9.0 0.00 0.01 0.00 35 1008.7
20260505220019 81 109 4.0 10.0 0.00 0.01 0.00 35 1008.7
20260505215519 81 114 3.0 8.0 0.00 0.01 0.00 34 1008.5
20260505215020 81 355 3.0 8.0 0.00 0.01 0.00 34 1008.6
20260505214519 81 3 3.0 7.0 0.00 0.01 0.00 34 1008.5
20260505214020 81 12 3.0 9.0 0.00 0.01 0.00 33 1008.4
20260505213519 81 36 3.0 7.0 0.00 0.01 0.00 33 1008.3
20260505213017 82 16 4.0 9.0 0.00 0.01 0.00 32 1008.4
20260505212537 82 100 4.0 12.0 0.00 0.01 0.00 32 1008.4
20260505212017 82 49 4.0 10.0 0.00 0.01 0.00 32 1008.3
20260505211520 82 4 3.0 8.0 0.00 0.01 0.00 31 1008.4
20260505211020 82 100 4.0 9.0 0.00 0.01 0.00 32 1008.4
20260505210520 82 11 3.0 10.0 0.00 0.01 0.00 32 1008.3
20260505210020 82 124 4.0 8.0 0.00 0.01 0.00 32 1008.2
20260505205540 83 317 4.0 9.0 0.00 0.01 0.00 32 1008.3
20260505205018 83 100 3.0 11.0 0.00 0.01 0.00 32 1008.2
20260505204518 83 271 4.0 10.0 0.00 0.01 0.00 33 1008.3
20260505204017 83 335 3.0 8.0 0.00 0.01 0.00 33 1008.2
20260505203518 83 349 2.0 6.0 0.00 0.01 0.00 34 1008.2
20260505203018 83 70 3.0 8.0 0.00 0.01 0.00 35 1008.2
20260505202518 83 9 2.0 8.0 0.00 0.01 0.00 35 1008.2
20260505202038 82 11 3.0 10.0 0.00 0.01 0.00 34 1008.3